Location: ?
(35.4996°N, 139.3166°E)
Time: 02:26:07
(UTC+00:00)

UNK - Visible Passes

Search period start: 19 July 2024 00:00
Search period end: 29 July 2024 00:00
Orbit: 659 x 679 km, 98.3° (Epoch: 18 July)

Date Brightness Start Highest point End Pass type
(mag) Time Alt. Az. Time Alt. Az. Time Alt. Az.
19 Jul 6.5 16:43:06 10° E 16:45:22 14° ENE 16:47:36 10° NE visible
19 Jul 3.9 18:18:28 16° S 18:21:56 50° W 18:26:22 10° NNW visible
20 Jul 5.5 17:13:40 10° SE 17:17:35 29° ENE 17:21:30 10° N visible
20 Jul 4.9 18:51:27 11° SW 18:54:36 22° W 18:58:07 10° NW visible
21 Jul 3.9 17:46:13 15° SSE 17:49:57 68° ENE 17:54:28 10° N visible
22 Jul 6.5 16:43:37 10° E 16:45:52 14° ENE 16:48:09 10° NE visible
22 Jul 3.9 18:19:11 17° S 18:22:28 50° W 18:26:53 10° NNW visible
23 Jul 5.5 17:14:11 10° SE 17:18:06 30° ENE 17:22:02 10° N visible
23 Jul 4.9 18:52:09 12° SW 18:55:07 22° W 18:58:37 10° NW visible
24 Jul 3.9 17:46:55 16° SSE 17:50:27 69° ENE 17:54:59 10° N visible
25 Jul 6.5 16:44:06 10° E 16:46:22 14° ENE 16:48:39 10° NE visible
25 Jul 3.9 18:19:52 19° S 18:22:57 50° W 18:27:23 10° NNW visible
26 Jul 5.5 17:14:39 10° SE 17:18:34 30° ENE 17:22:31 10° N visible
26 Jul 4.9 18:52:49 13° SW 18:55:36 22° W 18:59:06 10° NW visible
27 Jul 3.9 17:47:35 18° SSE 17:50:55 69° ENE 17:55:27 10° N visible
28 Jul 6.5 16:44:32 10° E 16:46:50 14° ENE 16:49:08 10° NE visible
28 Jul 3.9 18:20:32 20° SSW 18:23:24 50° W 18:27:50 10° NNW visible
